Погода в Вайнгартене

Германия     47°48′46″N   9°38′16″E
темп.,
°C
ветер,
м/с
пор.,
м/с
влажн.,
%
обл.,
%
осадки,
мм/ч
давл.,
гПа
погр.,
м
13 апреля, вт
вт1323:00−3вюв1198100 0.0 103111
02:00−3вюв0098100 0.0 103112
05:00−2ююв1195100 0.1 103010
08:00−1св019327 0.1 103185
11:00+4ссв346456 0.3 10301209
14:00+6ссв4444100 0.8 10281890
17:00+7ссв444290 0.3 10271957
20:00+2ссв49683 0.3 1029367
14 апреля, ср
ср1423:00−2всв248653 0.0 103169
02:00−3св22905 0.0 103037
05:00−4всв22945 0.0 103020
08:00−1всв23765 0.0 1029186
11:00+6всв564150 0.0 10262015
14:00+8ссв5533100 0.0 10242469
17:00+7ссв554097 0.0 10231997
20:00+3ссв4962100 0.1 1025395
15 апреля, чт
чт1523:00−1всв2878100 0.0 1027164
02:00−2св2384100 0.0 102652
05:00−3всв1190100 0.0 102611
08:00−1всв1175100 0.0 1027179
11:00+5св345884 0.1 10251391
14:00+7св4449100 1.1 10231760
17:00+7св453994 0.3 10212004
20:00
16 апреля, пт
пт1623:000св412818 0.0 1024353
02:00−1всв310840 0.0 1023309
05:00−4св37965 0.0 1023145
08:00−1св38805 0.0 1023290
11:00+6св565013 0.0 10211302
14:00+9св553886 0.0 10182052
17:00+9ссв664081 0.0 10171767
20:00+4св511665 0.0 1021577
17 апреля, сб
сб1723:000св512845 0.0 1022444
02:00−2св39915 0.0 1022248
05:00−4св24975 0.0 102269
08:00−1св248510 0.0 1021209
11:00+7св355372 0.0 10191357
14:00+9св5649100 0.0 10171559
17:00+10св584996 0.0 10151775
20:00+6ссв5117118 0.0 1017604